[Iaude] MPEC R31: 2023 RM [a=1.33,e=0.25,i=7.7,H=27.4]

mpec at marsden.cfa.harvard.edu mpec at marsden.cfa.harvard.edu
Wed Sep 6 21:48:58 EDT 2023


M.P.E.C. 2023-R31                             Issued 2023 September 7, 01:47 UT

     The Minor Planet Electronic Circulars contain information on unusual
         minor planets, routine data on comets and natural satellites,
         and occasional editorial announcements.  They are published
    on behalf of Division F of the International Astronomical Union by the
          Minor Planet Center, Smithsonian Astrophysical Observatory,
                          Cambridge, MA 02138, U.S.A.
			  
             Prepared using the Tamkin Foundation Computer Network

                              MPC at CFA.HARVARD.EDU
            URL https://www.minorplanetcenter.net/    ISSN 1523-6714

                                    2023 RM                                     


Observations:
     K23R00M*1C2023 09 06.17346821 42 02.552+04 55 11.71         20.47GVER031G96
     K23R00M 1C2023 09 06.17911921 42 01.228+04 57 41.65         20.59GVER031G96
     K23R00M 1C2023 09 06.18475521 41 59.651+05 00 17.57               VER031G96
     K23R00M 1C2023 09 06.19040021 41 58.182+05 02 50.46         20.46GVER031G96
     K23R00M 1C2023 09 06.21636821 41 51.335+05 14 33.65         19.92GVER031G96
     K23R00M 1C2023 09 06.21660921 41 51.263+05 14 40.96         20.29GVER031G96
     K23R00M 1C2023 09 06.21685021 41 51.212+05 14 46.75               VER031G96
     K23R00M 1C2023 09 06.21709121 41 51.126+05 14 53.70         20.24GVER031G96
     K23R00M 1C2023 09 06.40967721 41 01.151+06 42 42.37         20.55GVER031G96
     K23R00M 1C2023 09 06.40986121 41 01.108+06 42 48.20         21.07GVER031G96
     K23R00M 1C2023 09 06.41004421 41 01.064+06 42 52.45         19.81GVER031G96
     K23R00M 0B2023 09 06.75892 21 40 44.45 +09 32 57.5          19.7 VZER031M49
     K23R00M 0B2023 09 06.77966 21 40 39.21 +09 42 59.4          20.9 VZER031M49
     K23R00M KC2023 09 06.80747 21 40 30.46 +09 49 24.3          20.1 GVER031204
     K23R00M IC2023 09 06.84149 21 40 22.09 +10 05 54.9                VER031204
     K23R00M KC2023 09 06.84939 21 40 20.09 +10 09 45.3                VER031204
     K23R00M KC2023 09 06.93038721 39 57.04 +10 49 12.2          20.8 GVER031L01
     K23R00M KC2023 09 06.93193721 39 56.57 +10 49 57.5          19.8 GVER031L01
     K23R00M KC2023 09 06.93349121 39 56.22 +10 50 43.2          20.2 GVER031L01
     K23R00M KC2023 09 06.93504721 39 55.80 +10 51 28.8          20.1 GVER031L01
     K23R00M KC2023 09 06.93660321 39 55.33 +10 52 14.0          20.1 GVER031L01
     K23R00M KB2023 09 06.96976721 39 50.70 +11 08 31.4          19.9 GVER031I93
     K23R00M KB2023 09 06.97390121 39 49.60 +11 10 32.4                VER031I93
     K23R00M KB2023 09 06.97796821 39 48.49 +11 12 31.1          20.0 GVER031I93

Observer details:
204 Schiaparelli Observatory.  Observers L. Buzzi, G. Galli.  0.84-m f/3.5
    reflector + CCD.
G96 Mt. Lemmon Survey.  Observer A. R. Gibbs.  Measurers E. J. Christensen, D.
    Fay, J. B. Fazekas, D. C. Fuls, A. R. Gibbs, A. D. Grauer, H. Groeller, J.
    K. Hogan, R. A. Kowalski, S. M. Larson, G. J. Leonard, D. Rankin, R. L.
    Seaman, A. Serrano, F. C. Shelly, K. W. Wierzchos.  1.5-m reflector + 10K
    CCD.
I93 St Pardon de Conques.  Observer F. Losse.  0.40-m f/3.7 reflector + CMO.
L01 Visnjan Observatory, Tican.  Observer K. Korlevic.  1.0-m f/2.9 reflector
    + CCD.
M49 IAS Remote Observatory, Hakos.  Observers D. Husar, M. Junius.  Measurer
    D. Husar.  0.25-m f/4.6 reflector + CMO.

Orbital elements:
2023 RM                                                  Earth MOID = 0.0219 AU
Epoch 2023 Sept. 13.0 TT = JDT 2460200.5                Veres                   
M 342.42368              (2000.0)            P               Q                  
n   0.64621587     Peri.   40.23629     +0.93832347     -0.34263377             
a   1.3250054      Node   339.65651     +0.27293713     +0.81635434             
e   0.2541831      Incl.    7.66684     +0.21226017     +0.46493837             
P   1.53           H   27.49          G   0.15           U   8                  
Residuals in seconds of arc
230906 G96  0.5-  0.8+    230906 G96  0.0   0.5-    230906 L01  0.2+  0.3-
230906 G96  1.3+  2.2-    230906 G96  0.0   0.3+    230906 L01  0.6-  0.3-
230906 G96  0.5-  1.0+    230906 G96  0.1-  0.5-    230906 L01  0.4+  0.0
230906 G96  0.5-  0.8+    230906 M49  0.4+  0.4-    230906 L01  0.4+  0.1+
230906 G96  0.2+  0.9-    230906 M49  0.6+  1.6-    230906 L01  0.4-  0.1-
230906 G96  0.1+  0.1-    230906 204  0.2-  0.3+    230906 I93  0.4-  0.7+
230906 G96  0.3+  0.9-    230906 204  0.1-  0.3+    230906 I93  0.0   0.5+
230906 G96  0.1-  0.5-    230906 204  0.0   0.4+    230906 I93  0.1-  0.0

Ephemeris:
2023 RM                  a,e,i = 1.33, 0.25, 8                   q = 0.9882
Date    TT    R. A. (2000) Decl.     Delta      r    Elong.  Phase     V
2023 08 08    22 06 10.6 -45 28 55   0.1208  1.1189   148.6    28.2    24.4
...
2023 08 23    22 00 25.8 -39 09 53   0.06463 1.0692   152.5    25.9    22.9
...
2023 08 31    21 52 31.6 -25 25 37   0.03868 1.0462   160.7    18.6    21.5
...
2023 09 06    21 42 17.0 +03 40 31   0.02443 1.0310   158.7    20.8    20.5
2023 09 07    21 39 49.1 +11 26 23   0.02313 1.0287   153.2    26.2    20.6
2023 09 08    21 37 00.1 +19 55 55   0.02231 1.0264   146.4    32.9    20.7
...
2023 09 14    21 04 06.1 +66 39 37   0.02785 1.0139   105.2    73.2    22.3
...
2023 09 22    13 22 59.1 +85 07 57   0.04918 1.0008    84.9    92.3    24.2
...
2023 10 07    10 36 02.9 +72 30 44   0.09443 0.9886    80.5    94.1    25.7

M. P. C. Staff               (C) Copyright 2023 MPC           M.P.E.C. 2023-R31





More information about the Iaude mailing list